sat.trackr.live / text

‹ back to catalog

STARLINK-34986

NORAD 66446 · 2025-259AA

PAYLOAD ACTIVE UNKNOWN

§ Identity

Operator
Country
US
Launch date
2025-11-11
Launch site
AFETR
Launch vehicle
Mass (kg)
RCS (m²)

Purposes: comms

External: N2YO · Heavens-Above · Gunter

§ Orbital elements

Epoch: 2026-09-20T07:32:27.983328Z

Period
94.27 min
Inclination
43.0038°
Eccentricity
0.0002276
Mean motion
15.27585521 rev/d
Perigee alt
481.5 km
Apogee alt
484.6 km
Semi-major
6,861.2 km
B*
5.4499e-4
RAAN
255.4646°
Arg perigee
290.5422°
Mean anomaly
69.5186°
Rev number
4,925

§ Raw data

STARLINK-349861 66446U 25259AA  26263.31421277  .00014768  00000+0  54499-3 0  99942 66446  43.0038 255.4646 0002276 290.5422  69.5186 15.27585521 49255

JSON: /api/v1/satellites/66446 · /tle

For live sub-satellite position, see the globe view (requires WebGL).

§ Visibility from observer

Set your observer location to see the next 7 days of passes ≥ 10°. The values pass through the URL so the page stays shareable.

No JS? Fill the form by hand. The geolocation button needs JavaScript.